SCP
0 0 0 0 0 0 0 0 0 0 0 0 0 0 0 0 0 0 0 0 0 0 0 0 0 0 0 0 0 0 0 0 0 0 0 0 0 0 0 0 0 0 0
0 0 0 0 0 0 0 0 0 0 0 0 0 0 0 0 0 0 0 0 0 0 0 0 0 0 0 0 0 0 0 0 0 0 0 0 0 0 0 0 0 0 0
0 0 0 0 0 0 0 0 0 0 0 0 0 0 0 0 0 0 0 0 0 0 0 0 0 0 0 0 0 0 0 0 0 0 0 0 0 0 0 0 0 0 0
0 0 0 0 0 0 0 0 0 0 0 0 0 0 0 0 0 0 0 0 0 0 0 0 0 0 0 0 0 0 0 0 0 0 0 0 0 0 0 0 0 0 0
0 0 0 0 0 0 0 0 0 0 0 0 0 0 0 0 0 0 0 0 0 0 0 0 0 0 0 0 0 0 0 0 0 0 0 0 0 0 0 0 0 0 0
0 0 0 0 0 0 0 0 0 0 0 0 0 0 0 0 0 0 0 0 0 0 0 0 0 0 0 0 0 0 0 0 0 0 0 0 0 0 0 0 0 0 0
0 0 0 0 0 0 0 0 0 0 0 0 0 0 0 0 0 0 0 0 0 0 0 0 0 0 0 0 0 0 0 0 0 0 0 0 0 0 0 0 0 0 0
0 0 0 0 0 0 0 0 0 0 0 0 0 0 0 0 0 0 0 0 0 0 0 0 0 0 0 0 0 0 0 0 0 0 0 0 0 0 0 0 0 0 0
0 0 0 0 0 0 0 0 0 0 0 0 0 0 0 0 0 0 0 0 0 0 0 0 0 0 0 0 0 0 0 0 0 0 0 0 0 0 0 0 0 0 0
0 0 0 0 0 0 0 0 0 0 0 0 0 0 0 0 0 0 0 0 0 0 0 0 0 0 0 0 0 0 0 0 0 0 0 0 0 0 0 0 0 0 0
0 0 0 0 0 0 0 0 0 0 0 0 0 0 0 0 0 0 0 0 0 0 0 0 0 0 0 0 0 0 0 0 0 0 0 0 0 0 0 0 0 0 0
0 0 0 0 0 0 0 0 0 0 0 0 0 0 0 0 0 0 0 0 0 0 0 0 0 0 0 0 0 0 0 0 0 0 0 0 0 0 0 0 0 0 0
0 0 0 0 0 0 0 0 0 0 0 0 0 0 0 0 0 0 0 0 0 0 0 0 0 0 0 0 0 0 0 0 0 0 0 0 0 0 0 0 0 0 0
0 0 0 0 0 0 0 0 0 0 0 0 0 0 0 0 0 0 0 0 0 0 0 0 0 0 0 0 0 0 0 0 0 0 0 0 0 0 0 0 0 0 0
0 0 0 0 0 0 0 0 0 0 0 0 0 0 0 0 0 0 0 0 0 0 0 0 0 0 0 0 0 0 0 0 0 0 0 0 0 0 0 0 0 0 0
0 0 0 0 0 0 0 0 0 0 0 0 0 0 0 0 0 0 0 0 0 0 0 0 0 0 0 0 0 0 0 0 0 0 0 0 0 0 0 0 0 0 0
0 0 0 0 0 0 0 0 0 0 0 0 0 0 0 0 0 0 0 0 0 0 0 0 0 0 0 0 0 0 0 0 0 0 0 0 0 0 0 0 0 0 0
0 0 0 0 0 0 0 0 0 0 0 0 0 0 0 0 0 0 0 0 0 0 0 0 0 0 0 0 0 0 0 0 0 0 0 0 0 0 0 0 0 0 0
0 0 0 0 0 0 0 0 0 0 0 0 0 0 0 0 0 0 0 0 0 0 0 0 0 0 0 0 0 0 0 0 0 0 0 0 0 0 0 0 0 0 0
0 0 0 0 0 0 0 0 0 0 0 0 0 0 0 0 0 0 0 0 0 0 0 0 0 0 0 0 0 0 0 0 0 0 0 0 0 0 0 0 0 0 0
0 0 0 0 0 0 0 0 0 0 0 0 0 0 0 0 0 0 0 0 0 0 0 0 0 0 0 0 0 0 0 0 0 0 0 0 0 0 0 0 0 0 0
0 0 0 0 0 0 0 0 0 0 0 0 0 0 0 0 0 0 0 0 0 0 0 0 0 0 0 0 0 0 0 0 0 0 0 0 0 0 0 0 0 0 0
0 0 0 0 0 0 0 0 0 0 0 0 0 0 0 0 0 0 0 0 0 0 0 -0 -0 -0 0 0 0 0 0 0 0 0 0 0 0 0 0 0 0 0 0
0 0 0 0 0 0 0 0 0 0 0 0 0 0 0 0 0 0 0 0 0 0 -0 -0 -0 0 0 0 0 0 0 0 0 0 0 0 0 0 0 0 0 0 0
0 0 0 0 0 0 0 0 0 0 0 0 0 0 0 0 0 0 0 0 0 0 0 -0 -0 0 0 0 0 0 0 0 0 0 0 0 0 0 0 0 0 0 0
0 0 0 0 0 0 0 0 0 0 0 0 0 0 0 0 0 0 0 0 0 0 0 -0 0 0 0 0 0 0 0 0 0 0 0 0 0 0 0 0 0 0 0
Wind_Speed
6 6 6 7 8 8 9 8 9 9 9 9 9 10 10 11 11 12 11 12 12 12 13 13 13 14 14 14 15 15 15 16 15 15 15 16 16 16 16 13 12 12 15
6 7 7 8 9 9 9 9 9 9 9 9 9 10 10 11 11 12 12 12 12 13 13 13 13 14 14 14 14 15 15 15 15 13 12 13 14 15 16 14 13 12 15
7 8 9 8 9 9 9 9 9 10 9 9 9 10 10 11 11 12 12 12 12 13 13 13 13 14 14 14 14 14 14 14 13 10 9 10 12 15 15 15 15 15 15
7 7 8 9 9 10 9 9 9 10 9 9 10 10 10 11 11 11 12 13 13 13 13 13 13 13 13 13 14 14 14 13 11 8 8 9 10 14 14 15 15 15 14
7 7 7 9 9 9 9 9 9 10 9 9 10 10 10 11 11 11 12 13 13 13 13 13 13 13 13 13 13 13 13 12 9 9 9 9 9 13 14 14 14 14 13
7 7 7 8 9 9 9 9 10 10 9 9 10 10 10 11 11 11 12 12 12 13 13 13 13 13 13 13 13 13 12 9 8 9 9 9 9 12 13 13 13 13 13
7 6 7 8 9 10 9 9 10 10 9 9 9 10 10 11 11 11 12 12 12 12 12 12 12 13 13 13 13 13 11 8 8 8 8 8 10 13 13 13 13 13 13
6 6 7 8 8 9 9 9 9 10 9 10 10 10 10 11 11 11 11 11 11 11 12 12 12 13 13 13 13 13 11 7 8 9 8 9 11 12 13 13 14 13 13
5 5 5 6 7 7 8 8 9 9 9 9 10 10 10 10 11 11 11 11 11 11 11 12 12 12 13 13 13 13 11 8 8 7 8 8 10 12 12 13 13 14 13
4 4 4 4 5 5 6 7 8 8 9 9 10 10 10 10 10 10 10 10 11 11 11 11 12 12 12 13 12 11 9 6 9 8 7 8 11 12 12 12 12 12 13
4 3 3 4 4 4 5 5 6 7 8 8 8 10 8 6 7 7 9 10 10 11 10 11 11 11 11 11 11 9 6 5 7 6 7 9 11 12 12 12 12 12 12
5 4 3 4 4 4 4 4 3 4 5 5 5 6 5 5 5 6 9 10 10 10 10 10 10 9 6 5 7 6 4 6 6 6 7 11 11 11 12 12 12 12 12
6 4 3 4 4 4 3 3 2 2 3 4 5 5 5 5 4 4 4 5 5 6 5 6 5 4 5 4 4 5 6 5 4 5 7 11 11 11 12 12 12 12 12
5 5 4 4 4 4 3 3 2 2 2 3 4 5 4 3 3 3 2 3 3 2 3 3 3 5 6 6 6 6 6 4 4 4 6 11 11 11 11 12 12 12 12
5 5 4 4 4 4 4 3 3 2 3 4 3 3 4 3 3 3 3 2 3 3 3 3 4 5 5 6 6 6 6 6 6 5 5 10 11 10 10 11 11 11 11
5 5 4 4 4 4 4 3 3 3 3 3 3 4 4 3 3 3 3 3 3 2 2 3 4 4 4 4 5 6 6 5 6 5 5 6 10 10 10 10 10 10 10
4 4 5 4 4 4 4 4 3 3 3 3 3 4 4 4 4 3 3 3 2 2 3 3 4 4 4 4 5 5 4 5 5 5 5 4 5 9 10 10 10 9 9
3 3 4 3 4 4 3 3 3 3 3 3 3 3 4 4 4 4 3 3 3 2 2 3 3 3 3 3 3 3 3 3 5 5 5 4 4 4 7 10 9 9 9
3 3 3 4 4 4 3 3 3 3 3 3 3 3 4 5 5 4 3 3 3 2 2 2 2 3 3 3 3 3 3 3 3 4 4 5 5 4 4 6 8 9 9
2 2 3 3 3 3 3 2 2 2 2 3 3 3 4 4 5 4 3 4 4 3 3 3 3 3 3 3 3 3 3 2 2 3 3 3 4 4 4 4 4 5 8
1 1 2 2 3 3 3 3 2 2 3 3 3 4 5 5 4 4 3 4 4 3 4 4 4 4 3 2 2 2 2 2 2 1 1 2 3 3 3 4 3 3 3
1 1 2 2 3 3 3 3 2 2 3 3 2 3 5 5 5 4 5 4 4 4 5 4 4 3 2 2 2 2 2 3 2 1 0 1 1 1 2 3 3 3 3
2 2 2 3 3 4 4 2 2 1 2 2 3 3 4 5 5 5 5 5 5 4 4 5 5 5 4 3 1 2 2 2 2 2 1 1 0 0 1 1 2 2 2
3 2 2 3 3 4 4 4 5 4 4 4 3 3 4 5 5 5 6 6 5 4 5 5 5 4 5 4 2 1 1 0 2 2 2 2 1 1 1 0 0 1 1
3 3 2 2 2 3 4 5 5 5 3 3 3 4 4 4 5 5 5 5 6 5 5 6 5 5 5 5 3 2 2 2 2 2 2 2 2 2 2 2 1 1 1
4 3 2 2 2 2 4 5 6 6 5 4 5 5 4 3 4 5 5 5 5 5 6 6 5 6 5 5 4 4 3 3 3 3 3 3 2 2 2 2 2 2 1
Wind_Direction
165 165 170 162 141 133 126 119 113 108 102 99 96 92 89 83 80 79 81 84 85 84 82 81 81 80 78 76 74 74 74 73 72 72 72 74 76 77 77 76 80 84 82
158 164 168 152 138 132 126 119 113 108 104 101 98 94 90 86 84 82 81 85 86 85 83 81 79 80 78 75 74 74 74 73 71 69 73 76 73 74 75 71 70 81 83
153 160 163 147 137 131 125 117 113 110 108 105 102 97 92 89 87 84 82 83 84 84 82 80 79 79 77 76 75 75 73 72 68 64 74 81 78 73 73 73 75 80 81
152 158 158 140 137 131 126 120 117 113 111 108 104 99 97 93 89 86 84 83 82 82 80 79 78 79 78 78 77 75 73 70 63 62 75 75 78 75 74 74 75 77 80
151 154 146 136 135 134 129 123 120 116 112 109 104 100 99 95 90 87 84 82 80 80 78 78 77 78 79 78 77 75 72 69 65 72 75 74 76 75 74 74 75 77 79
149 150 142 136 132 130 129 125 122 119 116 112 106 103 100 96 92 88 85 82 80 79 78 78 76 77 79 78 76 75 70 65 77 76 76 75 76 76 75 74 75 77 79
147 147 142 137 133 128 128 126 123 119 116 114 111 107 101 97 93 89 87 84 82 80 78 78 77 77 77 76 75 74 67 57 74 76 75 75 73 75 76 75 75 76 78
142 143 142 132 127 127 124 118 117 116 115 113 110 106 101 97 93 91 88 85 82 79 78 78 78 77 78 76 72 69 61 56 77 76 74 73 67 72 76 75 74 76 78
131 135 135 138 131 121 117 116 115 114 112 110 107 102 97 95 94 92 89 86 83 80 79 79 78 77 78 75 71 67 59 50 74 72 71 69 66 71 74 74 74 74 75
122 129 133 132 132 133 129 116 112 111 109 106 102 98 93 93 93 90 91 88 86 83 79 78 76 75 77 73 69 63 53 61 72 72 67 65 65 71 74 74 74 74 74
129 134 139 138 134 130 124 112 112 109 106 108 102 95 98 106 102 95 84 83 86 84 81 79 76 73 74 72 64 55 53 66 70 65 64 62 69 72 73 72 72 73 74
163 155 150 148 144 138 128 129 136 132 125 121 121 117 110 100 87 86 80 77 80 81 81 78 77 74 67 74 67 51 62 65 66 65 58 58 70 75 75 72 70 70 72
172 160 159 158 153 145 134 128 124 128 126 124 120 116 111 103 102 95 96 93 89 86 86 84 82 72 70 68 65 63 60 61 62 63 55 57 67 73 76 74 71 71 72
174 171 163 165 160 152 142 133 133 132 128 119 119 120 117 109 106 104 95 93 90 82 86 81 76 79 77 74 71 69 64 61 64 62 55 53 64 68 72 73 71 71 71
184 181 174 170 167 157 150 144 142 139 136 127 123 123 120 118 116 113 101 92 86 83 88 90 89 84 79 75 72 70 68 65 66 68 64 52 56 64 68 70 70 69 69
194 192 182 175 174 161 157 154 149 141 138 135 130 130 129 122 122 118 108 98 90 86 89 97 98 93 82 79 75 69 67 65 64 64 66 61 52 56 62 65 66 66 66
201 196 191 181 176 172 168 167 156 146 147 141 135 138 132 126 130 127 118 113 101 102 108 105 104 100 93 89 82 73 66 62 66 63 60 59 58 54 58 60 60 62 61
207 200 195 184 177 175 174 173 165 157 150 148 144 146 140 135 137 133 129 122 123 126 127 120 118 109 101 97 91 79 72 69 66 65 65 61 56 55 57 55 55 58 57
213 202 191 183 179 174 172 170 164 160 154 154 152 150 147 146 150 145 137 135 144 141 137 130 128 118 112 103 95 84 74 70 67 68 69 63 59 58 58 55 52 51 54
224 204 193 183 179 173 168 164 157 160 161 160 159 158 157 158 160 152 144 150 153 152 146 146 135 118 114 116 107 87 74 75 70 65 65 64 59 58 56 56 55 49 47
264 210 197 189 188 181 181 178 186 191 181 171 168 164 168 166 164 160 155 160 166 163 157 154 143 131 121 138 133 118 105 92 87 67 62 64 63 57 57 52 49 41 42
294 258 224 210 201 199 200 197 196 197 198 178 167 168 173 172 170 171 172 171 174 167 164 163 157 149 150 181 171 168 171 177 165 131 103 71 53 54 53 49 50 41 35
318 280 252 235 221 215 202 184 160 165 171 177 182 178 181 178 176 178 182 177 178 177 176 175 177 173 175 187 194 203 199 197 160 177 180 176 76 357 31 43 47 38 29
318 303 270 249 232 218 205 193 191 201 208 206 193 187 184 186 183 183 184 184 183 186 185 182 185 186 188 187 182 228 266 153 202 188 190 194 224 261 278 297 324 15 5
333 324 297 263 241 222 213 206 205 214 219 203 190 190 188 187 189 186 186 187 186 189 190 187 190 192 200 196 188 183 183 192 223 218 218 212 229 242 257 259 250 249 262
357 351 334 297 262 241 223 216 213 213 211 199 199 195 196 193 192 193 190 192 191 190 192 193 195 201 201 199 197 196 197 198 200 211 224 231 241 244 251 247 239 235 240